No particular awareness of the weather is required.    There are no Weather-warnings


Meteo18 Weather Cam more information Meteo18 Weather Cam


Thunder radar more information blitzortung!


Rain radar more information rain snow radar


Visit our other weather sites:

Template documentation
and downloads

And another site



Weather Underground History page Text

Daily Summary for August 13, 2017 Units:  English    Metric   Both
« Previous Day
Next Day »
Daily Weekly Monthly Yearly Custom
  High: Low: Average:
Temperature: TemperatureC °F 15.5 °F 18.6 °F
Dew Point: DewpointC °F 13.1 °F 14.7 °F
Humidity: Humidity % 56 % 79 %
Wind Speed: WindSpeedKMH mph 0.0 mph 2.8 mph
Wind Gust: WindSpeedGustKMH mph - -
Wind:- - SSW
Pressure: PressurehPa in 1020.9 in -
Precipitation: 0.5 in    
Historical Graphs
 
 
Tabular Data for August 13, 2017
Time Temperature Dew Point Pressure Wind Wind Speed Wind Gust Humidity Rainfall Rate (Hourly)
TemperatureC °F DewpointC °F PressurehPa in Calm     Humidity % HourlyPrecipMM in
00:02 18.3 °F 14.8 °F 1022.6 in SW 3.2 mph 6.4 mph 80 % 0.0 in
00:12 18.2 °F 14.9 °F 1022.6 in SSW 3.2 mph 6.4 mph 81 % 0.0 in
00:17 18.2 °F 14.9 °F 1022.6 in SW 4.8 mph 6.4 mph 81 % 0.0 in
00:22 18.2 °F 14.9 °F 1022.6 in SW 4.8 mph 6.4 mph 81 % 0.0 in
00:27 18.2 °F 14.9 °F 1022.6 in SW 3.2 mph 8.0 mph 81 % 0.0 in
00:32 18.1 °F 14.8 °F 1022.6 in SSW 1.6 mph 8.0 mph 81 % 0.0 in
00:37 18.1 °F 15.0 °F 1022.6 in SW 3.2 mph 9.7 mph 82 % 0.0 in
00:42 18.1 °F 15.0 °F 1022.6 in SSW 3.2 mph 9.7 mph 82 % 0.0 in
00:47 18.1 °F 15.0 °F 1022.6 in SW 1.6 mph 9.7 mph 82 % 0.0 in
00:52 18.0 °F 14.9 °F 1022.6 in SW 1.6 mph 6.4 mph 82 % 0.0 in
00:57 18.0 °F 14.9 °F 1022.6 in WSW 3.2 mph 6.4 mph 82 % 0.0 in
01:02 18.0 °F 14.9 °F 1022.6 in WSW 3.2 mph 4.8 mph 82 % 0.0 in
01:07 18.0 °F 14.9 °F 1022.6 in SW 3.2 mph 4.8 mph 82 % 0.0 in
01:12 18.0 °F 14.9 °F 1022.6 in Calm   4.8 mph 82 % 0.0 in
01:17 17.9 °F 14.8 °F 1022.6 in SSW 1.6 mph 4.8 mph 82 % 0.0 in
01:22 17.9 °F 15.0 °F 1022.6 in SW 1.6 mph 4.8 mph 83 % 0.0 in
01:32 17.8 °F 15.1 °F 1022.6 in Calm   3.2 mph 84 % 0.0 in
01:37 17.8 °F 15.1 °F 1022.6 in Calm   3.2 mph 84 % 0.0 in
01:42 17.8 °F 15.1 °F 1022.6 in Calm   6.4 mph 84 % 0.0 in
01:52 17.9 °F 15.2 °F 1022.2 in West 3.2 mph 8.0 mph 84 % 0.0 in
02:02 17.9 °F 15.3 °F 1022.2 in West 3.2 mph 8.0 mph 85 % 0.0 in
02:07 17.9 °F 15.3 °F 1022.2 in WSW 1.6 mph 6.4 mph 85 % 0.0 in
02:12 17.9 °F 15.3 °F 1022.2 in Calm   6.4 mph 85 % 0.0 in
02:17 17.8 °F 15.2 °F 1022.2 in West 1.6 mph 6.4 mph 85 % 0.0 in
02:22 17.8 °F 15.4 °F 1022.2 in Calm   4.8 mph 86 % 0.0 in
02:27 17.8 °F 15.4 °F 1022.2 in Calm   3.2 mph 86 % 0.0 in
02:32 17.7 °F 15.3 °F 1022.2 in Calm   3.2 mph 86 % 0.0 in
02:37 17.7 °F 15.3 °F 1022.2 in Calm   3.2 mph 86 % 0.0 in
02:42 17.7 °F 15.3 °F 1022.2 in SW 3.2 mph 3.2 mph 86 % 0.0 in
02:47 17.7 °F 15.3 °F 1022.2 in SW 1.6 mph 6.4 mph 86 % 0.0 in
02:52 17.7 °F 15.5 °F 1022.2 in SW 3.2 mph 6.4 mph 87 % 0.0 in
02:57 17.6 °F 15.4 °F 1021.9 in SW 6.4 mph 6.4 mph 87 % 0.0 in
03:02 17.7 °F 15.5 °F 1021.9 in SW 3.2 mph 6.4 mph 87 % 0.0 in
03:12 17.7 °F 15.5 °F 1021.9 in West 6.4 mph 8.0 mph 87 % 0.0 in
03:17 17.8 °F 15.4 °F 1021.9 in West 6.4 mph 9.7 mph 86 % 0.0 in
03:22 17.8 °F 15.4 °F 1021.9 in WSW 3.2 mph 9.7 mph 86 % 0.0 in
03:32 17.7 °F 15.5 °F 1021.9 in West 1.6 mph 8.0 mph 87 % 0.0 in
03:37 17.7 °F 15.5 °F 1021.9 in WSW 6.4 mph 8.0 mph 87 % 0.0 in
03:42 17.6 °F 15.4 °F 1021.9 in SW 3.2 mph 8.0 mph 87 % 0.0 in
03:47 17.6 °F 15.4 °F 1021.9 in WSW 3.2 mph 8.0 mph 87 % 0.0 in
03:52 17.5 °F 15.3 °F 1021.9 in SSW 1.6 mph 6.4 mph 87 % 0.0 in
03:57 17.4 °F 15.2 °F 1021.9 in SW 4.8 mph 6.4 mph 87 % 0.0 in
04:02 17.3 °F 15.3 °F 1021.9 in SW 6.4 mph 6.4 mph 88 % 0.0 in
04:07 17.2 °F 15.2 °F 1021.9 in SW 4.8 mph 8.0 mph 88 % 0.0 in
04:12 17.2 °F 15.2 °F 1021.6 in SSW 3.2 mph 8.0 mph 88 % 0.0 in
04:17 17.3 °F 15.3 °F 1021.6 in SW 3.2 mph 9.7 mph 88 % 0.0 in
04:22 17.3 °F 15.3 °F 1021.9 in SW 1.6 mph 9.7 mph 88 % 0.0 in
04:27 17.3 °F 15.3 °F 1021.6 in SSW 1.6 mph 9.7 mph 88 % 0.0 in
04:32 17.3 °F 15.5 °F 1021.6 in SW 1.6 mph 9.7 mph 89 % 0.0 in
04:37 17.2 °F 15.4 °F 1021.6 in WSW 3.2 mph 9.7 mph 89 % 0.0 in
04:42 17.2 °F 15.4 °F 1021.6 in SW 3.2 mph 9.7 mph 89 % 0.0 in
04:47 17.2 °F 15.5 °F 1021.6 in SSW 1.6 mph 6.4 mph 90 % 0.0 in
04:52 17.1 °F 15.4 °F 1021.6 in Calm   6.4 mph 90 % 0.0 in
04:57 17.0 °F 15.5 °F 1021.6 in Calm   6.4 mph 91 % 0.0 in
05:02 17.0 °F 15.5 °F 1021.6 in Calm   4.8 mph 91 % 0.0 in
05:12 16.9 °F 15.4 °F 1021.6 in Calm   1.6 mph 91 % 0.0 in
05:22 16.9 °F 15.4 °F 1021.6 in Calm   1.6 mph 91 % 0.0 in
05:32 16.8 °F 15.5 °F 1021.6 in Calm     92 % 0.0 in
05:37 16.8 °F 15.5 °F 1021.6 in Calm     92 % 0.0 in
05:42 16.8 °F 15.5 °F 1021.6 in Calm     92 % 0.0 in
05:47 16.8 °F 15.5 °F 1021.6 in Calm     92 % 0.0 in
05:52 16.8 °F 15.5 °F 1021.6 in WNW 3.2 mph   92 % 0.0 in
05:57 16.8 °F 15.7 °F 1021.6 in Calm   4.8 mph 93 % 0.0 in
06:02 16.9 °F 15.8 °F 1021.6 in West 4.8 mph 4.8 mph 93 % 0.0 in
06:12 16.8 °F 15.7 °F 1021.6 in WSW 1.6 mph 6.4 mph 93 % 0.0 in
06:17 16.8 °F 15.7 °F 1021.6 in WSW 4.8 mph 6.4 mph 93 % 0.0 in
06:22 16.8 °F 15.7 °F 1021.6 in West 3.2 mph 6.4 mph 93 % 0.0 in
06:32 16.7 °F 15.7 °F 1021.6 in West 1.6 mph 8.0 mph 94 % 0.0 in
06:37 16.7 °F 15.7 °F 1021.6 in SW 1.6 mph 8.0 mph 94 % 0.0 in
06:42 16.6 °F 15.6 °F 1021.6 in WSW 1.6 mph 8.0 mph 94 % 0.0 in
06:47 16.6 °F 15.6 °F 1021.6 in Calm   8.0 mph 94 % 0.0 in
06:57 16.6 °F 15.8 °F 1021.6 in WSW 1.6 mph 4.8 mph 95 % 0.0 in
07:07 16.5 °F 15.7 °F 1021.6 in Calm   4.8 mph 95 % 0.0 in
07:12 16.5 °F 15.7 °F 1021.6 in WNW 1.6 mph 3.2 mph 95 % 0.0 in
07:17 16.5 °F 15.7 °F 1021.6 in WNW 1.6 mph 3.2 mph 95 % 0.0 in
07:22 16.6 °F 15.8 °F 1021.9 in Calm   3.2 mph 95 % 0.0 in
07:27 16.5 °F 15.7 °F 1021.9 in Calm   3.2 mph 95 % 0.5 in
07:32 16.5 °F 15.7 °F 1021.6 in Calm   1.6 mph 95 % 0.5 in
07:42 16.5 °F 15.7 °F 1021.9 in Calm   1.6 mph 95 % 0.5 in
07:47 16.5 °F 15.7 °F 1021.9 in WNW 1.6 mph 3.2 mph 95 % 0.5 in
07:52 16.5 °F 15.7 °F 1021.9 in NNW 3.2 mph 3.2 mph 95 % 0.5 in
07:57 16.5 °F 15.7 °F 1021.9 in NW 1.6 mph 3.2 mph 95 % 0.5 in
08:02 16.6 °F 16.0 °F 1021.9 in NNW 1.6 mph 6.4 mph 96 % 0.5 in
08:12 16.5 °F 15.9 °F 1021.9 in Calm   6.4 mph 96 % 0.5 in
08:17 16.5 °F 15.9 °F 1021.9 in Calm   6.4 mph 96 % 0.5 in
08:22 16.4 °F 15.6 °F 1021.9 in North 3.2 mph 6.4 mph 95 % 0.5 in
08:32 16.3 °F 15.5 °F 1022.2 in WNW 1.6 mph 11.3 mph 95 % 0.3 in
08:37 16.2 °F 15.4 °F 1022.2 in North 8.0 mph 11.3 mph 95 % 0.3 in
08:42 16.1 °F 15.3 °F 1022.2 in NNE 4.8 mph 8.0 mph 95 % 0.3 in
08:47 16.0 °F 15.2 °F 1022.2 in NNW 4.8 mph 9.7 mph 95 % 0.0 in
08:52 15.9 °F 15.1 °F 1022.2 in NW 1.6 mph 9.7 mph 95 % 0.0 in
08:57 15.9 °F 15.1 °F 1022.2 in NNW 4.8 mph 9.7 mph 95 % 0.0 in
09:02 15.8 °F 14.8 °F 1022.2 in NW 1.6 mph 9.7 mph 94 % 0.0 in
09:12 15.8 °F 14.8 °F 1022.6 in Calm   8.0 mph 94 % 0.0 in
09:17 15.8 °F 14.8 °F 1022.6 in NW 1.6 mph 6.4 mph 94 % 0.0 in
09:22 15.8 °F 14.8 °F 1022.6 in WNW 1.6 mph 6.4 mph 94 % 0.0 in
09:27 15.7 °F 14.7 °F 1022.6 in West 3.2 mph 6.4 mph 94 % 0.0 in
09:32 15.7 °F 14.7 °F 1022.6 in North 1.6 mph 6.4 mph 94 % 0.0 in
09:37 15.8 °F 14.8 °F 1022.6 in NNW 1.6 mph 6.4 mph 94 % 0.0 in
09:42 15.8 °F 14.8 °F 1022.2 in NNE 4.8 mph 6.4 mph 94 % 0.0 in
09:47 15.8 °F 14.8 °F 1022.6 in NNW 4.8 mph 6.4 mph 94 % 0.0 in
09:52 16.0 °F 15.0 °F 1022.6 in NNW 1.6 mph 8.0 mph 94 % 0.0 in
09:57 16.1 °F 15.1 °F 1022.6 in North 4.8 mph 8.0 mph 94 % 0.0 in
10:02 16.3 °F 15.3 °F 1022.6 in NE 3.2 mph 8.0 mph 94 % 0.0 in
10:07 16.4 °F 15.3 °F 1022.9 in Calm   8.0 mph 93 % 0.0 in
10:12 16.3 °F 15.0 °F 1022.9 in North 3.2 mph 8.0 mph 92 % 0.0 in
10:17 16.4 °F 15.3 °F 1022.9 in WNW 1.6 mph 8.0 mph 93 % 0.0 in
10:22 16.5 °F 15.2 °F 1022.9 in NW 3.2 mph 8.0 mph 92 % 0.0 in
10:32 16.5 °F 15.0 °F 1022.9 in WNW 8.0 mph 8.0 mph 91 % 0.0 in
10:42 16.6 °F 15.3 °F 1023.2 in NW 3.2 mph 9.7 mph 92 % 0.0 in
10:52 16.5 °F 15.0 °F 1023.2 in NNW 8.0 mph 9.7 mph 91 % 0.0 in
11:02 16.6 °F 15.3 °F 1022.9 in NE 4.8 mph 12.9 mph 92 % 0.0 in
11:12 16.6 °F 15.1 °F 1023.2 in North 9.7 mph 11.3 mph 91 % 0.0 in
11:17 16.6 °F 15.1 °F 1023.2 in NNE 4.8 mph 11.3 mph 91 % 0.0 in
11:27 16.8 °F 14.8 °F 1023.2 in NW 3.2 mph 11.3 mph 88 % 0.0 in
11:32 16.9 °F 14.7 °F 1023.2 in NE 6.4 mph 11.3 mph 87 % 0.0 in
11:42 17.1 °F 15.1 °F 1023.2 in ENE 3.2 mph 12.9 mph 88 % 0.0 in
11:47 17.2 °F 15.2 °F 1023.2 in North 6.4 mph 12.9 mph 88 % 0.0 in
11:52 17.4 °F 15.4 °F 1023.2 in Calm   11.3 mph 88 % 0.0 in
11:57 17.7 °F 15.3 °F 1023.2 in NNE 4.8 mph 11.3 mph 86 % 0.0 in
12:02 17.6 °F 14.9 °F 1023.2 in North 1.6 mph 11.3 mph 84 % 0.0 in
12:12 18.0 °F 15.1 °F 1023.2 in NE 3.2 mph 9.7 mph 83 % 0.0 in
12:17 18.4 °F 15.3 °F 1023.2 in NNE 4.8 mph 12.9 mph 82 % 0.0 in
12:22 18.7 °F 14.8 °F 1023.2 in NE 6.4 mph 12.9 mph 78 % 0.0 in
12:27 18.9 °F 15.0 °F 1023.2 in NNE 6.4 mph 12.9 mph 78 % 0.0 in
12:32 19.3 °F 15.2 °F 1023.2 in East 1.6 mph 12.9 mph 77 % 0.0 in
12:37 19.3 °F 15.0 °F 1022.9 in Calm   12.9 mph 76 % 0.0 in
12:42 19.6 °F 15.0 °F 1022.9 in NW 6.4 mph 9.7 mph 75 % 0.0 in
12:47 19.7 °F 15.3 °F 1022.9 in North 3.2 mph 9.7 mph 76 % 0.0 in
12:52 20.1 °F 15.3 °F 1022.9 in WNW 1.6 mph 9.7 mph 74 % 0.0 in
12:57 20.4 °F 15.2 °F 1022.9 in NNW 8.0 mph 9.7 mph 72 % 0.0 in
13:02 20.1 °F 14.9 °F 1022.9 in WNW 1.6 mph 9.7 mph 72 % 0.0 in
13:07 20.1 °F 14.9 °F 1022.6 in NE 8.0 mph 9.7 mph 72 % 0.0 in
13:12 20.2 °F 15.0 °F 1022.6 in NW 4.8 mph 11.3 mph 72 % 0.0 in
13:17 20.7 °F 15.3 °F 1022.6 in NNE 1.6 mph 14.5 mph 71 % 0.0 in
13:27 20.6 °F 15.2 °F 1022.6 in NW 1.6 mph 14.5 mph 71 % 0.0 in
13:32 20.8 °F 15.1 °F 1022.6 in North 9.7 mph 14.5 mph 70 % 0.0 in
13:42 21.1 °F 15.4 °F 1022.6 in North 4.8 mph 12.9 mph 70 % 0.0 in
13:47 21.2 °F 15.3 °F 1022.6 in WSW 1.6 mph 9.7 mph 69 % 0.0 in
13:52 21.1 °F 14.7 °F 1022.6 in NW 3.2 mph 9.7 mph 67 % 0.0 in
13:57 20.9 °F 14.1 °F 1022.6 in Calm   9.7 mph 65 % 0.0 in
14:02 21.3 °F 14.5 °F 1022.2 in NE 3.2 mph 9.7 mph 65 % 0.0 in
14:07 21.6 °F 15.0 °F 1022.2 in WNW 4.8 mph 9.7 mph 66 % 0.0 in
14:12 21.2 °F 14.6 °F 1022.2 in NNW 3.2 mph 9.7 mph 66 % 0.0 in
14:17 21.1 °F 14.5 °F 1022.6 in Calm   9.7 mph 66 % 0.0 in
14:22 21.2 °F 14.4 °F 1022.2 in NW 3.2 mph 11.3 mph 65 % 0.0 in
14:32 21.1 °F 14.5 °F 1022.2 in ENE 6.4 mph 11.3 mph 66 % 0.0 in
14:37 21.0 °F 14.4 °F 1022.2 in NNE 8.0 mph 11.3 mph 66 % 0.0 in
14:42 21.2 °F 14.6 °F 1022.2 in NNE 3.2 mph 12.9 mph 66 % 0.0 in
14:52 21.6 °F 14.5 °F 1022.2 in West 1.6 mph 11.3 mph 64 % 0.0 in
14:57 21.6 °F 14.5 °F 1022.2 in NW 3.2 mph 11.3 mph 64 % 0.0 in
15:02 21.8 °F 14.7 °F 1022.2 in Calm   11.3 mph 64 % 0.0 in
15:07 21.9 °F 14.5 °F 1022.2 in ENE 3.2 mph 8.0 mph 63 % 0.0 in
15:12 21.9 °F 14.5 °F 1022.2 in NE 1.6 mph 14.5 mph 63 % 0.0 in
15:22 21.4 °F 14.3 °F 1021.9 in West 3.2 mph 16.1 mph 64 % 0.0 in
15:32 21.5 °F 14.4 °F 1021.9 in ENE 4.8 mph 12.9 mph 64 % 0.0 in
15:37 21.5 °F 14.2 °F 1021.9 in ENE 3.2 mph 8.0 mph 63 % 0.0 in
15:42 21.6 °F 14.7 °F 1021.9 in NE 3.2 mph 6.4 mph 65 % 0.0 in
15:47 21.8 °F 14.2 °F 1021.9 in NE 11.3 mph 11.3 mph 62 % 0.0 in
15:52 21.7 °F 14.6 °F 1021.9 in Calm   11.3 mph 64 % 0.0 in
15:57 21.7 °F 14.1 °F 1021.9 in NW 1.6 mph 11.3 mph 62 % 0.0 in
16:02 21.9 °F 14.3 °F 1021.9 in SW 1.6 mph 11.3 mph 62 % 0.0 in
16:07 22.2 °F 14.1 °F 1021.9 in Calm   6.4 mph 60 % 0.0 in
16:12 22.4 °F 14.3 °F 1021.9 in North 3.2 mph 4.8 mph 60 % 0.0 in
16:17 22.4 °F 15.3 °F 1021.9 in NNW 3.2 mph 11.3 mph 64 % 0.0 in
16:22 22.2 °F 15.1 °F 1021.6 in NW 4.8 mph 11.3 mph 64 % 0.0 in
16:27 22.1 °F 15.0 °F 1021.6 in NW 3.2 mph 11.3 mph 64 % 0.0 in
16:32 21.9 °F 14.8 °F 1021.6 in West 3.2 mph 6.4 mph 64 % 0.0 in
16:37 22.0 °F 14.4 °F 1021.6 in West 3.2 mph 6.4 mph 62 % 0.0 in
16:42 22.3 °F 14.4 °F 1021.6 in NW 3.2 mph 6.4 mph 61 % 0.0 in
16:52 22.3 °F 14.2 °F 1021.6 in Calm   8.0 mph 60 % 0.0 in
16:57 22.6 °F 13.9 °F 1021.6 in Calm   8.0 mph 58 % 0.0 in
17:02 22.8 °F 13.8 °F 1021.6 in Calm   8.0 mph 57 % 0.0 in
17:07 22.7 °F 14.0 °F 1021.6 in NW 4.8 mph 4.8 mph 58 % 0.0 in
17:12 22.5 °F 14.1 °F 1021.6 in Calm   11.3 mph 59 % 0.0 in
17:17 22.3 °F 14.2 °F 1021.6 in NW 6.4 mph 11.3 mph 60 % 0.0 in
17:22 22.4 °F 14.0 °F 1021.6 in Calm   11.3 mph 59 % 0.0 in
17:27 22.7 °F 14.0 °F 1021.6 in Calm   9.7 mph 58 % 0.0 in
17:32 22.4 °F 14.0 °F 1021.6 in North 3.2 mph 9.7 mph 59 % 0.0 in
17:37 22.4 °F 14.0 °F 1021.6 in North 1.6 mph 9.7 mph 59 % 0.0 in
17:42 22.7 °F 14.3 °F 1021.6 in NNW 4.8 mph 9.7 mph 59 % 0.0 in
17:52 22.6 °F 13.9 °F 1021.2 in WNW 3.2 mph 11.3 mph 58 % 0.0 in
17:57 22.9 °F 14.2 °F 1021.2 in NW 3.2 mph 11.3 mph 58 % 0.0 in
18:02 23.0 °F 13.7 °F 1021.2 in West 4.8 mph 11.3 mph 56 % 0.0 in
18:07 22.9 °F 13.7 °F 1021.2 in SW 1.6 mph 11.3 mph 56 % 0.0 in
18:12 23.2 °F 14.2 °F 1021.2 in NW 4.8 mph 11.3 mph 57 % 0.0 in
18:17 23.4 °F 14.4 °F 1021.2 in NNW 1.6 mph 11.3 mph 57 % 0.0 in
18:22 23.3 °F 14.0 °F 1021.2 in NNE 6.4 mph 9.7 mph 56 % 0.0 in
18:27 23.1 °F 14.6 °F 1021.2 in NE 6.4 mph 9.7 mph 59 % 0.0 in
18:32 22.7 °F 14.5 °F 1020.9 in NE 8.0 mph 8.0 mph 60 % 0.0 in
18:42 22.7 °F 14.5 °F 1021.2 in NNE 3.2 mph 12.9 mph 60 % 0.0 in
18:52 22.4 °F 14.5 °F 1020.9 in ENE 8.0 mph 11.3 mph 61 % 0.0 in
18:57 22.3 °F 14.7 °F 1020.9 in ENE 6.4 mph 11.3 mph 62 % 0.0 in
19:02 22.3 °F 14.7 °F 1020.9 in ENE 4.8 mph 11.3 mph 62 % 0.0 in
19:12 22.4 °F 14.5 °F 1020.9 in ENE 4.8 mph 9.7 mph 61 % 0.0 in
19:17 22.1 °F 14.5 °F 1020.9 in NNE 8.0 mph 9.7 mph 62 % 0.0 in
19:22 21.9 °F 14.3 °F 1020.9 in NE 6.4 mph 9.7 mph 62 % 0.0 in
19:27 21.8 °F 14.4 °F 1020.9 in NNE 8.0 mph 12.9 mph 63 % 0.0 in
19:32 21.9 °F 14.3 °F 1020.9 in NNE 4.8 mph 12.9 mph 62 % 0.0 in
19:42 22.0 °F 14.6 °F 1020.9 in NE 6.4 mph 11.3 mph 63 % 0.0 in
19:47 21.9 °F 14.3 °F 1020.9 in NNE 8.0 mph 12.9 mph 62 % 0.0 in
19:52 21.8 °F 14.2 °F 1020.9 in North 9.7 mph 12.9 mph 62 % 0.0 in
20:02 21.7 °F 14.6 °F 1020.9 in ENE 3.2 mph 14.5 mph 64 % 0.0 in
20:12 21.3 °F 14.2 °F 1020.9 in NE 6.4 mph 16.1 mph 64 % 0.0 in
20:17 21.2 °F 14.4 °F 1020.9 in NE 9.7 mph 16.1 mph 65 % 0.0 in
20:22 21.0 °F 14.2 °F 1020.9 in NE 6.4 mph 12.9 mph 65 % 0.0 in
20:32 20.7 °F 14.4 °F 1020.9 in NE 6.4 mph 12.9 mph 67 % 0.0 in
20:37 20.6 °F 14.3 °F 1021.2 in NE 4.8 mph 12.9 mph 67 % 0.0 in
20:42 20.4 °F 14.3 °F 1021.2 in NE 6.4 mph 9.7 mph 68 % 0.0 in
20:47 20.3 °F 14.4 °F 1021.2 in NE 3.2 mph 9.7 mph 69 % 0.0 in
20:52 20.1 °F 14.5 °F 1021.2 in NE 3.2 mph 9.7 mph 70 % 0.0 in
20:57 19.7 °F 14.3 °F 1021.2 in NE 3.2 mph 9.7 mph 71 % 0.0 in
21:02 19.4 °F 14.2 °F 1021.2 in NE 4.8 mph 6.4 mph 72 % 0.0 in
21:12 19.2 °F 14.5 °F 1021.2 in NNE 1.6 mph 6.4 mph 74 % 0.0 in
21:17 18.9 °F 14.4 °F 1021.2 in Calm   6.4 mph 75 % 0.0 in
21:22 18.7 °F 14.2 °F 1021.2 in North 1.6 mph 4.8 mph 75 % 0.0 in
21:27 18.6 °F 14.3 °F 1021.2 in Calm   3.2 mph 76 % 0.0 in
21:32 18.4 °F 14.3 °F 1021.2 in NNW 1.6 mph 4.8 mph 77 % 0.0 in
21:37 18.2 °F 14.1 °F 1021.2 in Calm   4.8 mph 77 % 0.0 in
21:42 18.1 °F 14.0 °F 1021.2 in North 1.6 mph 4.8 mph 77 % 0.0 in
21:47 18.0 °F 14.1 °F 1021.2 in NNW 3.2 mph 4.8 mph 78 % 0.0 in
21:52 17.9 °F 14.0 °F 1021.6 in NNE 1.6 mph 6.4 mph 78 % 0.0 in
21:57 17.8 °F 13.9 °F 1021.6 in Calm   6.4 mph 78 % 0.0 in
22:02 17.6 °F 13.9 °F 1021.6 in Calm   4.8 mph 79 % 0.0 in
22:07 17.3 °F 13.8 °F 1021.6 in North 1.6 mph 3.2 mph 80 % 0.0 in
22:12 17.2 °F 13.7 °F 1021.6 in Calm   3.2 mph 80 % 0.0 in
22:17 17.1 °F 13.8 °F 1021.6 in Calm   3.2 mph 81 % 0.0 in
22:27 16.8 °F 13.7 °F 1021.6 in Calm   3.2 mph 82 % 0.0 in
22:32 16.7 °F 13.6 °F 1021.6 in NNE 1.6 mph 3.2 mph 82 % 0.0 in
22:37 16.7 °F 13.6 °F 1021.6 in Calm   3.2 mph 82 % 0.0 in
22:42 16.6 °F 13.7 °F 1021.6 in Calm   1.6 mph 83 % 0.0 in
22:52 16.3 °F 13.6 °F 1021.6 in Calm   1.6 mph 84 % 0.0 in
22:57 16.2 °F 13.5 °F 1021.6 in Calm   1.6 mph 84 % 0.0 in
23:02 16.1 °F 13.6 °F 1021.6 in Calm   1.6 mph 85 % 0.0 in
23:07 15.9 °F 13.4 °F 1021.6 in Calm   1.6 mph 85 % 0.0 in
23:12 15.8 °F 13.3 °F 1021.6 in Calm   1.6 mph 85 % 0.0 in
23:17 15.8 °F 13.3 °F 1021.6 in Calm   1.6 mph 85 % 0.0 in
23:22 15.7 °F 13.2 °F 1021.6 in Calm   1.6 mph 85 % 0.0 in
23:32 15.7 °F 13.4 °F 1021.6 in Calm   1.6 mph 86 % 0.0 in
23:37 15.7 °F 13.2 °F 1021.6 in NNW 1.6 mph 1.6 mph 85 % 0.0 in
23:42 15.6 °F 13.1 °F 1021.6 in NNW 1.6 mph 1.6 mph 85 % 0.0 in
23:47 15.5 °F 13.2 °F 1021.6 in Calm   1.6 mph 86 % 0.0 in
23:52 15.5 °F 13.2 °F 1021.6 in Calm   1.6 mph 86 % 0.0 in
23:57 15.5 °F 13.2 °F 1021.6 in Calm   1.6 mph 86 % 0.0 in
Meteo18
Compliments of Weather Underground - 4 mb

Script developed by  Jim McMurry - jmcmurry@mwt.net Adapted for the template by  Wim van der Kuil - Leuven-Template.eu

You find our weather info also at:

European Weather Network

Weather Underground

Equipment we use:

Weather-station
Davis Vue

Weather-program
Meteobridge

Weather-server
Raspberry PI 2 B+

Provider
1 and 1

Davis Vue

Meteobridge

Raspberry PI 2 B+

1 and 1